Starlink 34722

operational
NORAD ID: 64851 Int'l Des: 2025-152 Owner: SPXS Country: US Constellation: starlink
LEOCIRCULARRETROGRADESSO

Starlink 34722について

説明を読み込み中...

リアルタイム位置

3D地球を読み込み中...

次回通過

高度履歴

Altitude vs Time

uPlot chart will show altitude changes over time

軌道要素

1 64851U 25152K 26063.16548159 .00007410 00000-0 51704-3 0 9997
2 64851 97.6009 280.0235 0001162 93.5244 266.6115 15.05662434 34587
Epoch: Mar 4, 2026 • Age: 19 hours

現在のステータス

高度 552.5 km
速度 7.59 km/s
衛星直下点 0.05°N, 11.26°E
打ち上げ日 Jul 19, 2025
運用期間 0.6 years
タイプ internet

技術仕様

分類 Payload
質量 575.00 kg
乾燥質量 530.00 kg
総質量 575.00 kg
長さ 0.30 m
直径 4.10 m
スパン 29.00 m
形状 Box + pan
製造者 SPXS
バスタイプ Starlink V2MO
フェーズステータス In Orbit
所有者/国 SPXS/US

大規模コンステレーション

Loading constellations...